Probability
0 0 0 0 0 0 0 0 0 0 0 0 0 0 0 3 0 0 3 0 0 3 3 6 3 3 3 0 0 0 0 0 0 0 0 0 3 0 0 0 0 0 0 0
0 0 0 0 0 0 0 0 0 0 0 0 0 0 0 0 0 0 0 0 0 3 6 6 6 3 0 0 0 0 0 0 0 0 0 0 0 0 0 0 0 0 0 0
0 0 0 0 0 0 0 0 0 0 0 0 0 0 0 0 0 0 0 0 0 0 0 6 3 3 3 0 0 0 0 0 0 0 3 3 6 3 3 0 0 0 0 0
0 0 0 0 0 0 0 0 0 0 0 0 0 0 0 0 0 0 0 0 0 3 3 3 3 3 3 3 0 0 3 3 0 0 3 6 6 3 3 0 0 0 0 0
0 0 0 0 0 0 0 0 0 0 0 0 0 0 0 0 0 0 0 0 0 3 6 3 3 3 3 0 0 0 0 0 0 0 3 6 6 6 3 0 0 0 0 0
0 0 0 0 0 0 0 0 0 0 0 0 0 0 0 0 0 0 0 0 0 0 6 6 3 3 3 3 0 3 3 3 3 6 3 6 6 6 3 3 0 0 0 0
0 0 0 0 0 0 0 0 0 0 0 0 0 0 0 0 0 0 0 0 0 3 6 6 10 10 10 6 0 3 3 3 6 6 6 3 6 3 3 3 3 0 0 0
0 0 0 0 0 0 0 0 0 0 0 0 0 0 0 0 0 0 0 0 0 3 6 6 10 10 10 10 0 0 0 3 6 6 6 3 3 3 3 3 3 0 0 0
0 0 0 0 0 0 0 0 0 0 0 0 0 0 0 0 0 0 0 0 0 3 6 6 10 10 13 6 3 0 0 0 0 6 6 6 3 3 3 3 0 0 0 0
0 0 0 0 0 0 0 0 0 0 0 0 0 0 0 0 0 0 0 0 3 6 6 6 6 10 6 6 3 0 0 0 0 0 6 6 6 6 6 3 0 0 0 0
0 0 0 0 0 0 0 0 0 0 0 0 0 0 0 0 0 0 0 0 0 3 3 6 6 6 6 6 3 0 0 0 0 0 3 6 6 6 6 6 0 0 0 0
0 0 0 0 0 0 0 0 0 0 0 0 0 0 0 0 0 0 0 0 0 3 3 6 6 6 6 3 6 3 0 0 0 0 0 6 6 6 6 6 3 3 0 0
0 0 0 0 0 0 0 0 0 0 0 0 0 0 0 0 0 0 0 0 0 0 6 6 6 6 6 3 3 3 0 0 0 0 0 3 6 6 6 6 3 3 0 0
0 0 0 0 0 0 0 0 0 0 0 0 0 0 0 0 0 0 0 0 0 0 3 6 6 6 6 3 3 3 0 0 0 0 3 6 6 6 6 6 3 3 0 0
0 0 0 0 0 0 0 0 0 0 0 0 0 0 0 0 0 0 0 0 0 3 3 3 6 6 6 3 3 3 0 0 0 0 0 3 3 3 3 3 3 3 0 0
0 0 0 0 0 0 0 0 0 0 0 0 0 0 0 0 0 0 0 0 3 3 3 3 3 3 3 3 3 3 3 0 0 3 3 3 3 3 3 3 3 3 0 0
0 0 0 0 0 0 0 0 0 0 0 0 0 0 0 0 0 0 0 3 0 3 3 3 3 3 3 3 0 0 0 3 3 3 3 3 3 3 3 3 3 3 0 0
0 0 0 0 0 0 0 0 0 0 0 0 0 0 0 0 0 0 0 3 0 3 3 3 0 0 0 0 0 0 0 0 0 0 3 3 3 3 3 3 3 3 0 0
0 0 0 0 0 0 0 0 0 0 0 0 0 0 0 0 0 0 0 3 0 3 3 3 0 0 0 0 0 0 0 0 0 0 0 0 0 0 0 0 0 0 0 0
0 0 0 0 0 0 0 0 0 0 0 0 0 0 0 0 0 0 0 3 10 6 6 6 0 0 0 0 0 0 0 0 0 0 0 0 0 0 0 0 0 0 0 0
0 0 0 0 0 0 0 0 0 0 0 0 0 0 0 0 0 0 0 0 6 6 6 6 6 0 0 0 0 0 0 0 0 0 0 0 0 0 0 0 0 0 0 0
0 0 0 0 0 0 0 0 0 0 0 0 0 0 0 0 0 0 0 6 6 6 3 3 0 0 0 0 0 0 0 0 0 0 0 0 0 0 0 0 0 0 0 0
0 0 0 0 0 0 0 0 0 0 0 0 0 0 0 0 0 0 0 6 6 3 3 0 0 0 0 0 0 0 0 0 0 0 0 0 0 0 0 0 0 0 0 0
0 0 0 0 0 0 0 0 0 0 0 0 0 0 0 0 0 0 3 6 6 3 0 0 0 0 0 0 0 0 0 0 0 0 0 0 0 0 0 0 0 0 0 0
0 0 0 0 0 0 0 0 0 0 0 0 0 0 0 0 0 0 3 6 6 0 0 0 0 0 0 0 0 0 0 0 0 0 0 0 0 0 0 0 0 0 0 0
0 0 0 0 0 0 0 0 0 0 0 0 0 0 0 0 0 0 3 6 6 0 0 0 0 0 0 0 0 0 0 0 0 0 0 0 0 0 0 0 0 0 0 0
Height
5839 5841 5842 5843 5844 5845 5846 5847 5848 5849 5850 5850 5851 5852 5853 5854 5855 5857 5858 5860 5861 5863 5864 5866 5868 5870 5872 5874 5875 5876 5877 5879 5880 5881 5882 5882 5883 5883 5884 5884 5885 5885 5885 5884
5839 5840 5841 5842 5843 5844 5845 5846 5847 5848 5848 5849 5850 5851 5852 5853 5854 5855 5857 5858 5860 5861 5863 5865 5867 5869 5871 5872 5873 5875 5876 5877 5878 5880 5881 5881 5882 5882 5883 5884 5884 5884 5884 5884
5838 5840 5840 5842 5842 5843 5844 5845 5846 5847 5848 5848 5849 5850 5851 5851 5853 5854 5855 5857 5858 5860 5862 5864 5866 5868 5870 5871 5872 5874 5875 5876 5877 5878 5880 5880 5881 5881 5882 5883 5883 5883 5883 5883
5837 5839 5840 5841 5841 5842 5843 5844 5845 5846 5847 5847 5849 5849 5849 5850 5851 5853 5854 5855 5857 5859 5861 5863 5865 5867 5868 5870 5871 5873 5874 5875 5876 5877 5878 5879 5880 5880 5881 5882 5882 5882 5882 5882
5837 5838 5839 5840 5840 5841 5842 5843 5844 5845 5845 5846 5847 5848 5849 5849 5850 5851 5853 5854 5856 5858 5859 5861 5863 5865 5867 5868 5870 5871 5873 5874 5875 5875 5876 5877 5878 5879 5880 5880 5881 5881 5881 5881
5836 5837 5838 5839 5840 5840 5841 5842 5843 5843 5844 5846 5846 5847 5848 5847 5849 5850 5852 5853 5854 5856 5858 5860 5861 5863 5865 5867 5868 5870 5871 5872 5873 5874 5875 5876 5876 5877 5878 5878 5879 5880 5880 5880
5835 5836 5837 5838 5839 5839 5840 5842 5843 5843 5844 5845 5845 5846 5847 5846 5847 5849 5850 5851 5852 5854 5856 5858 5859 5861 5863 5865 5866 5867 5869 5870 5871 5872 5873 5874 5875 5875 5876 5877 5877 5878 5878 5879
5833 5835 5836 5837 5838 5838 5839 5841 5842 5843 5844 5844 5844 5844 5845 5845 5846 5847 5848 5849 5851 5852 5853 5855 5857 5859 5861 5863 5864 5865 5867 5868 5869 5869 5871 5872 5872 5873 5874 5875 5875 5876 5876 5877
5832 5833 5834 5835 5836 5837 5838 5838 5840 5841 5842 5843 5843 5843 5843 5843 5844 5845 5846 5847 5848 5850 5851 5853 5855 5857 5858 5860 5862 5863 5864 5865 5866 5867 5868 5869 5870 5871 5872 5873 5873 5874 5874 5875
5830 5831 5832 5833 5835 5835 5837 5837 5838 5839 5840 5841 5842 5841 5841 5841 5842 5843 5844 5845 5846 5848 5849 5851 5852 5854 5856 5857 5859 5861 5862 5863 5864 5865 5866 5867 5868 5869 5870 5870 5871 5872 5872 5872
5827 5829 5831 5831 5832 5834 5835 5836 5836 5837 5838 5839 5839 5841 5840 5840 5840 5841 5842 5843 5844 5845 5847 5848 5850 5851 5853 5855 5856 5858 5859 5861 5862 5863 5864 5864 5865 5866 5867 5868 5868 5869 5869 5870
5825 5827 5828 5830 5830 5831 5832 5833 5834 5835 5836 5836 5837 5840 5837 5837 5838 5839 5839 5840 5841 5843 5844 5846 5847 5849 5850 5852 5853 5855 5856 5858 5859 5860 5861 5862 5863 5863 5864 5865 5866 5866 5866 5867
5822 5824 5825 5827 5830 5830 5830 5831 5832 5833 5833 5834 5835 5837 5835 5835 5836 5836 5837 5838 5839 5840 5841 5843 5844 5846 5847 5849 5850 5852 5853 5855 5856 5857 5858 5858 5859 5861 5862 5862 5863 5863 5863 5863
5819 5820 5823 5825 5825 5826 5827 5828 5829 5830 5831 5831 5832 5833 5833 5833 5833 5834 5835 5835 5836 5837 5839 5840 5841 5843 5844 5846 5847 5849 5850 5851 5852 5854 5854 5855 5856 5857 5858 5859 5859 5860 5860 5860
5815 5817 5819 5820 5822 5823 5824 5825 5826 5827 5828 5829 5830 5829 5830 5830 5831 5831 5832 5833 5834 5835 5836 5837 5839 5840 5841 5843 5844 5846 5847 5848 5849 5850 5851 5852 5853 5854 5855 5855 5856 5856 5856 5856
5811 5813 5815 5817 5818 5819 5821 5822 5823 5824 5825 5826 5827 5827 5827 5827 5828 5829 5830 5831 5832 5832 5833 5834 5836 5837 5838 5840 5841 5843 5844 5845 5846 5847 5848 5849 5850 5850 5851 5852 5852 5852 5852 5851
5806 5809 5811 5813 5815 5815 5817 5819 5820 5821 5822 5823 5824 5825 5825 5825 5826 5826 5827 5828 5829 5830 5831 5832 5833 5834 5835 5837 5838 5839 5841 5842 5843 5843 5844 5845 5846 5847 5847 5848 5848 5848 5848 5847
5802 5804 5806 5808 5811 5812 5816 5816 5816 5817 5818 5819 5820 5821 5822 5822 5823 5824 5825 5826 5826 5827 5828 5829 5830 5831 5832 5833 5834 5836 5837 5838 5839 5840 5841 5842 5842 5843 5843 5844 5844 5844 5844 5843
5797 5799 5801 5803 5805 5807 5810 5811 5812 5813 5815 5816 5817 5818 5818 5819 5820 5821 5822 5822 5823 5824 5825 5826 5827 5828 5828 5830 5831 5832 5833 5834 5835 5836 5837 5838 5838 5839 5839 5840 5840 5840 5840 5839
5791 5794 5796 5798 5800 5802 5806 5807 5808 5810 5811 5812 5813 5814 5814 5815 5817 5818 5818 5819 5820 5820 5821 5822 5823 5824 5825 5826 5827 5828 5829 5830 5831 5832 5833 5834 5834 5835 5835 5835 5835 5835 5835 5835
5785 5788 5790 5793 5795 5797 5800 5801 5804 5806 5807 5807 5808 5809 5810 5811 5813 5814 5814 5815 5816 5817 5818 5819 5820 5820 5821 5822 5823 5824 5825 5826 5827 5828 5828 5829 5830 5830 5830 5830 5831 5831 5830 5830
5780 5783 5785 5787 5789 5793 5794 5797 5799 5800 5801 5802 5803 5804 5806 5807 5808 5809 5810 5811 5812 5813 5814 5815 5815 5816 5817 5818 5819 5820 5821 5822 5823 5824 5824 5824 5825 5825 5825 5826 5826 5826 5826 5825
5774 5777 5780 5783 5786 5787 5789 5791 5792 5794 5795 5797 5798 5799 5801 5802 5803 5804 5805 5806 5807 5808 5809 5810 5811 5812 5813 5813 5814 5816 5817 5817 5818 5819 5819 5820 5820 5820 5821 5821 5821 5821 5821 5820
5768 5770 5773 5775 5778 5780 5782 5785 5786 5788 5790 5792 5793 5794 5796 5797 5798 5799 5800 5801 5802 5804 5805 5805 5806 5807 5808 5809 5810 5811 5812 5813 5813 5814 5814 5815 5815 5815 5816 5816 5816 5816 5816 5815
5761 5764 5766 5768 5771 5774 5776 5778 5780 5782 5784 5786 5787 5789 5790 5791 5793 5794 5795 5796 5797 5798 5799 5800 5801 5802 5803 5804 5805 5806 5807 5807 5808 5809 5809 5810 5810 5810 5811 5811 5811 5810 5810 5809
5754 5757 5759 5762 5765 5767 5769 5771 5773 5776 5777 5779 5781 5783 5784 5785 5787 5788 5789 5791 5792 5793 5794 5795 5796 5797 5798 5799 5800 5801 5802 5802 5803 5803 5804 5804 5805 5805 5805 5805 5805 5804 5804 5803
Wind_Speed
6 6 6 7 7 8 7 7 8 8 8 9 9 8 9 9 9 10 10 10 9 9 10 10 10 9 9 8 8 8 8 7 6 6 5 5 4 4 4 4 3 3 3 3
5 6 6 6 6 7 8 8 8 8 8 8 8 8 8 9 10 10 10 10 9 9 10 11 10 9 9 8 8 8 8 7 6 6 5 5 5 5 5 4 4 4 4 3
6 6 6 7 7 7 7 8 8 8 8 7 8 8 8 9 10 10 10 10 10 10 10 11 10 10 9 8 8 8 8 7 7 6 6 6 5 5 5 5 4 4 4 4
7 6 6 7 6 7 7 8 8 8 8 8 7 7 8 8 9 9 10 10 9 10 10 10 10 10 9 9 8 7 7 7 7 7 7 6 6 6 5 5 5 5 5 5
7 7 6 6 7 7 7 7 7 7 7 7 7 7 8 9 9 9 9 10 10 10 11 11 11 10 10 10 9 8 8 7 7 8 8 7 7 7 6 6 6 6 6 6
7 7 7 7 6 6 6 6 6 6 6 7 7 7 8 9 9 9 10 10 10 11 11 11 11 10 10 11 10 9 8 8 8 8 8 8 7 7 7 7 7 7 7 7
8 8 8 7 7 6 6 6 5 6 7 7 7 8 9 10 9 10 10 11 12 11 11 11 11 11 11 11 10 10 9 9 8 9 9 9 8 8 8 8 7 7 7 7
8 8 8 7 7 7 7 7 7 6 5 7 9 10 10 10 9 10 11 11 12 12 11 12 12 12 12 12 11 10 9 9 8 8 9 9 9 9 8 8 8 8 8 8
9 9 8 8 8 8 9 8 7 7 6 7 9 10 10 10 10 10 11 12 13 13 13 13 12 13 12 12 12 12 11 9 9 9 9 10 9 9 9 9 9 9 9 9
11 11 10 9 9 9 8 8 9 9 8 8 8 10 11 11 11 11 11 12 13 13 13 13 13 13 13 13 13 12 11 10 10 10 10 10 9 9 10 10 9 9 9 10
13 11 10 10 10 9 9 9 10 10 10 10 9 10 11 11 11 11 12 12 12 13 13 13 13 13 13 13 12 12 12 12 11 11 11 11 10 10 11 11 10 10 11 11
13 13 11 10 10 10 11 10 10 10 11 10 11 12 12 12 12 12 12 12 12 13 13 13 13 13 13 13 13 13 13 12 12 12 12 12 12 12 11 11 11 11 12 12
15 14 13 12 12 11 11 11 11 11 11 11 12 12 12 12 12 11 11 11 12 12 13 13 13 13 13 13 13 13 13 13 13 13 13 12 12 12 12 12 12 12 12 13
17 16 15 13 12 12 12 12 12 12 12 11 12 13 13 12 12 12 11 11 12 12 12 13 12 12 13 13 13 13 13 13 13 13 13 12 12 12 12 12 13 13 14 14
18 18 17 15 14 14 13 12 13 13 13 12 12 12 12 12 12 12 12 12 11 11 12 12 12 12 13 13 13 13 12 12 13 13 13 12 13 13 13 13 14 15 15 15
19 19 18 17 16 15 14 14 13 13 13 13 13 13 13 12 12 12 12 12 12 12 12 12 12 13 13 14 14 14 14 13 13 13 13 13 13 14 14 14 15 16 16 16
20 20 20 18 17 17 16 14 15 14 13 13 13 13 13 13 13 13 12 12 13 13 12 12 13 13 14 14 15 15 15 14 14 14 13 14 14 15 15 15 15 15 16 16
22 20 20 20 19 19 16 15 16 15 14 14 14 14 14 13 13 13 13 13 13 13 12 13 13 14 14 14 14 15 15 15 14 14 14 14 15 15 15 15 15 15 15 15
22 22 22 22 21 20 19 17 16 15 15 15 15 15 15 14 14 14 14 14 14 14 14 14 13 13 14 14 15 15 15 15 15 15 14 15 15 16 16 16 16 16 16 16
23 23 23 23 22 22 20 18 17 18 18 17 16 15 16 16 16 15 15 14 14 14 15 15 14 14 14 15 15 15 15 14 15 15 15 16 16 16 17 17 17 17 16 16
24 24 24 23 23 23 22 18 17 18 18 17 17 16 17 17 17 16 16 15 15 15 15 15 15 15 15 16 16 15 15 15 15 16 16 16 17 17 17 18 18 18 18 18
25 25 24 23 24 24 22 20 19 19 19 18 18 18 18 18 18 17 17 17 17 16 16 16 16 16 16 17 17 17 16 16 16 16 16 17 17 17 17 18 19 19 19 19
26 25 25 26 25 24 23 22 21 21 21 20 20 19 18 18 19 18 17 17 17 17 17 17 17 17 17 17 17 18 18 17 17 17 17 17 17 17 17 18 19 20 20 20
26 26 26 27 26 26 25 23 23 23 22 22 21 20 20 20 20 19 18 18 17 18 17 17 18 17 17 17 17 18 18 17 18 18 18 17 17 17 17 19 19 19 20 20
28 27 27 28 27 26 25 24 24 24 23 22 22 22 21 21 20 20 19 19 18 18 18 18 17 17 17 17 17 17 17 17 18 18 18 18 18 18 18 19 20 20 21 21
29 29 29 28 26 25 25 26 25 24 23 23 23 22 22 22 21 21 20 20 19 18 18 18 18 18 18 18 17 17 18 18 19 19 19 19 19 19 19 20 20 21 22 22
Wind_Direction
222 226 225 222 226 230 235 237 240 241 244 243 245 248 239 237 236 232 231 233 235 232 223 218 219 219 223 230 232 229 228 226 227 237 245 246 253 254 258 266 277 289 300 311
226 225 223 222 231 236 237 242 242 245 247 250 255 252 240 235 236 232 232 236 234 227 220 218 219 222 225 231 232 227 228 228 233 242 246 248 253 255 252 255 269 280 292 302
224 228 231 234 239 242 236 238 243 246 248 255 257 251 243 236 236 232 233 233 232 225 223 215 217 220 225 224 225 226 228 230 236 242 243 248 251 256 254 253 262 272 282 291
225 228 231 236 240 242 243 243 244 245 244 249 253 256 246 246 240 236 232 230 226 224 223 219 219 222 225 223 222 226 230 233 240 245 247 247 251 254 256 252 258 267 276 285
227 232 233 240 243 240 236 244 244 242 243 247 251 252 252 244 238 238 238 232 231 226 222 220 219 221 226 227 224 229 233 237 244 249 249 247 252 253 253 252 256 264 273 279
230 235 238 245 247 242 236 240 242 240 242 255 259 261 257 251 246 242 240 235 234 226 224 224 226 228 231 230 228 232 238 243 247 249 249 248 252 255 252 252 256 263 270 276
229 235 239 243 245 238 233 231 232 242 252 259 265 269 264 259 255 248 241 238 232 229 230 229 230 231 231 232 233 235 241 246 251 251 248 249 253 255 256 254 256 263 270 275
233 239 242 243 242 237 235 233 229 232 255 264 265 267 268 265 261 254 245 241 238 238 239 233 232 234 233 235 238 239 241 246 251 251 251 254 255 255 255 256 257 265 270 272
236 242 242 248 246 238 233 227 228 234 239 258 264 269 267 267 261 254 249 245 243 240 239 235 233 234 234 236 240 242 245 248 253 253 255 257 256 255 255 257 257 264 268 271
233 242 239 244 243 243 236 232 225 227 236 249 259 263 264 265 260 255 252 249 245 241 237 236 235 236 235 237 239 241 243 247 253 254 255 254 255 257 258 259 261 264 266 271
233 239 239 242 243 243 242 241 241 238 236 246 250 257 262 269 265 258 255 254 249 243 241 239 237 238 238 237 237 238 243 250 254 256 254 252 254 257 261 260 264 266 268 271
231 234 240 242 246 247 246 247 247 243 238 244 252 260 264 268 267 266 258 252 249 246 240 240 240 240 238 239 239 241 244 249 253 256 256 254 255 260 259 258 264 268 271 271
233 233 235 240 246 249 247 247 246 244 244 245 250 258 262 262 261 264 259 251 248 246 242 243 241 240 238 237 240 243 247 251 252 256 257 255 257 258 258 257 263 270 274 273
234 235 236 245 250 252 248 246 245 246 245 249 251 256 261 260 262 257 253 249 246 245 243 241 240 240 238 239 242 245 250 250 250 255 254 256 257 257 259 263 266 270 274 276
233 234 234 239 244 252 255 250 245 246 247 248 252 255 257 257 258 255 251 251 250 246 245 244 240 239 240 240 242 247 251 253 252 253 255 256 256 258 261 265 268 270 274 276
235 234 234 237 242 247 251 254 251 250 248 249 251 254 256 255 254 254 249 248 250 251 250 248 245 244 242 242 244 248 251 252 254 255 257 256 258 260 263 267 271 272 274 276
239 236 235 236 239 246 248 253 256 255 251 251 252 254 255 257 258 258 253 248 248 250 255 254 251 250 248 247 246 249 251 254 255 256 258 258 260 264 265 270 273 275 276 280
238 237 239 239 239 244 248 253 255 254 253 252 252 254 255 256 259 260 257 254 252 252 253 254 253 253 253 251 251 252 255 256 256 258 258 260 263 265 268 270 273 277 281 283
238 238 241 241 241 244 248 249 251 255 254 255 255 255 256 256 258 259 259 258 258 257 252 252 254 257 256 254 254 257 258 257 258 259 259 262 264 266 269 272 273 277 281 283
237 239 242 243 245 246 247 249 250 254 254 254 255 255 256 255 256 257 258 258 257 258 257 256 257 258 257 256 256 258 259 260 259 260 261 264 266 267 271 271 272 275 279 282
237 239 241 243 246 248 247 247 250 252 255 254 255 255 253 253 255 257 256 256 257 258 259 260 260 261 258 256 257 259 258 258 259 261 265 268 270 271 270 271 271 273 277 281
240 240 241 243 246 246 248 250 251 253 254 253 255 256 253 253 254 256 257 257 257 258 259 259 260 260 258 256 256 258 258 259 261 264 267 269 269 270 271 272 273 275 278 281
239 241 242 242 245 248 248 250 249 250 250 251 253 255 253 253 254 255 256 257 257 259 259 259 259 260 258 256 256 257 258 259 261 265 268 268 268 269 271 273 277 279 280 282
236 239 241 243 243 245 247 248 249 250 252 252 253 254 254 255 255 256 255 256 257 258 260 259 258 259 258 256 256 258 261 262 262 264 265 269 273 270 270 274 277 279 281 283
239 240 242 244 245 246 246 246 247 248 250 251 252 253 253 254 254 255 256 256 256 257 258 258 258 257 257 258 258 259 261 262 263 265 266 268 271 270 271 273 276 279 282 284
239 241 242 244 245 245 246 247 248 248 249 250 251 253 253 253 253 254 256 257 256 256 256 257 257 257 257 258 259 260 262 263 263 265 267 270 272 271 272 274 278 282 283 285